Back to catalog

COSMOS 89

AliveMilitaryLEO
NORAD 1587·PAYLOAD·🇷🇺 Russia

Launched Sep 18, 1965 from Baikonur Cosmodrome

Loading…

Next Passes (next 24 hours)

TLE

FreshSource: Space-Track

Epoch: Sep 14, 2026, 11:30 UTC

1 01587U 65073D   26257.47964476 -.00000087  00000-0  49322-4 0  9991
2 01587  56.0551 269.1686 0168622  67.7134 294.1551 12.38989588759926

Track COSMOS 89 in real time with AllMySat

Download on the App Store